Regional Weather Roundup
Issued by NWS Newport/Morehead, NC

Current Version | Previous Version | Graphics & Text | Print | Product List | Glossary Off
Versions: 1 2 3 4 5 6 7 8 9 10 11 12 13 14 15 16 17 18 19 20 21 22 23 24 25 26 27 28 29 30 31 32 33 34 35 36 37 38 39 40 41 42 43 44 45 46 47 48 49 50

000
ASUS42 KMHX 311425
RWRMHX
WEATHER ROUNDUP FOR EASTERN NORTH CAROLINA
NATIONAL WEATHER SERVICE NEWPORT/MOREHEAD CITY NC
1000 AM EDT WED AUG 31 2016

NOTE: "FAIR" INDICATES FEW OR NO CLOUDS BELOW 12,000 FEET
WITH NO SIGNIFICANT WEATHER AND/OR OBSTRUCTIONS TO VISIBILITY

NCZ015>017-031-032-045>047-102-103-311500-
NORTH COAST

CITY           SKY/WX    TMP DP  RH WIND       PRES   REMARKS
EDENTON        CLOUDY   N/A N/A N/A N5        30.01S
ELIZABETH CITY SUNNY     82  75  79 NE3       30.00S
KITTY HAWK     MOSUNNY   85  79  84 N7        29.98S
MANTEO         PTSUNNY   82  77  84 NE8       29.99S

$$

NCZ045>047-081-094-103-104-311500-
CENTRAL COAST

CITY           SKY/WX    TMP DP  RH WIND       PRES   REMARKS
FRISCO         MOSUNNY   85  76  74 N8        29.98R

$$

NCZ095-097-098-100-101-311500-
SOUTHERN COAST

CITY           SKY/WX    TMP DP  RH WIND       PRES   REMARKS
BEAUFORT       MOSUNNY   81  76  84 NW8       30.00R
CEDAR ISLAND   NOT AVBL
JACKSONVILLE   CLOUDY    78  74  87 N3        30.01R
PINEY ISLAND   PTSUNNY  N/A N/A N/A N7        29.99S
WILMINGTON     CLOUDY    79  75  87 CALM      30.01R


$$

NCZ011>013-027>030-043-044-078>080-089-090>093-098-311500-
COASTAL PLAIN

CITY           SKY/WX    TMP DP  RH WIND       PRES   REMARKS
AHOSKIE        CLOUDY    74  73  99 CALM      30.01F
CLINTON        CLOUDY    80  76  87 NE3       30.02S
ELIZABETHTOWN  PTSUNNY   80  76  88 CALM      30.01S
GOLDSBORO      MOSUNNY   81  79  94 NE2       30.01R
GREENVILLE     MOSUNNY   77  77 100 N5        30.03R
HAVELOCK       CLOUDY    81  74  79 N5        30.02R
KENANSVILLE    CLOUDY    77  73  88 N3        30.02S
KINSTON        MOSUNNY   77  77 100 CALM      30.02R
NEW BERN       CLOUDY    78  73  84 N5        30.02S
RICHLANDS      CLOUDY    76  74  93 CALM      30.02R
ROCKY MOUNT    MOSUNNY   79  75  87 VRB3      30.02R
WASHINGTON     PTSUNNY   75  74  96 CALM      30.02R
WHITEVILLE     CLOUDY    78  75  90 NE3       30.01R

$$

AMZ130-135-150-152-154-156-158-170-250-252-270-ANZ085-086-088-633-658-670-311500-
MARINE OBSERVATIONS

STATION/POSITION TIME  TEMP    WIND        PRES    WAVE   SWELL
                       AIR SEA DIR/SP/G            HT/PER HT/PER
                 (UTC) (F)     (DEG/KT/KT) (MB)    (FT/S) (FT/S)
CHESAPEAKE LIGHT NOT AVBL
64 E VA BEACH    1350   80 80   30/ 12/ 14 1014.7    4/10   3/10
DUCK             1400   80 80   10/  7/  9 1014.9
2 E DUCK         1311      79                N/A     3/13   2/13
OREGON INLET     1400   82 81  360/  6/ 10 1015.2
13E OREGON INLT  1400      80                N/A     4/ 9   3/ 9
HATTERAS CG      1400   81 82   10/ 11/ 12 1014.9
DIAMOND BUOY     1350   81 85  360/ 12/ 14 1014.7    4/11   3/11
CAPE LOOKOUT     1400   81     340/  6/  8 1015.3
BEAUFORT LAB     1400   80 80  360/  7/  8 1015.3
30 SE NEW RVR IN 1408   81 84  360/  6/  8 1015.9
30 SE NEW RVR IN 1355      84                N/A     3/11   2/11
27 SE WRIGHTSVLE 1408   82 84   40/  4/  6 1016.0
5 SE WRIGHTSVLE  1408   80 83   60/  4/  6 1016.9
225 S CAPE HAT   1350   83 84  190/  2/  4 1016.1    4/10   3/10
41 SE CHARLESTON 1350   78 84  110/  8/ 10 1014.8    4/11   3/11

$$



USA.gov is the U.S. government's official web portal to all federal, state and local government web resources and services.